ZKJEE NZWN-NZWU

Flight info

Callsign ZKJEE
Flight time 0h 39m
Altitude 9000
Route KAPTI DCT VIROL
Aircraft DHC6/L-SDFGR/C

Departure

Time 2026-04-18 04:53
Airport Wellington International Airport (NZWN)

Arrival

Time 2026-04-18 05:32
Airport Wanganui Airport (NZWU)
Time Latitude Longitude Altitude Speed Heading
2026-04-18 04:35 -41.32674 174.80539 46 ft 0 kts 333°
2026-04-18 04:48 -41.32674 174.80538 46 ft 0 kts 333°
2026-04-18 04:49 -41.32673 174.80538 46 ft 0 kts 333°
2026-04-18 04:50 -41.32668 174.80540 46 ft 2 kts 44°
2026-04-18 04:50 -41.32668 174.80549 46 ft 3 kts 92°
2026-04-18 04:50 -41.32675 174.80617 46 ft 11 kts 97°
2026-04-18 04:50 -41.32667 174.80685 46 ft 0 kts
2026-04-18 04:51 -41.32666 174.80685 46 ft 0 kts
2026-04-18 04:52 -41.32617 174.80694 46 ft 36 kts
2026-04-18 04:52 -41.32118 174.80716 86 ft 94 kts
2026-04-18 04:53 -41.31599 174.80734 675 ft 69 kts 355°
2026-04-18 04:53 -41.31214 174.80796 1245 ft 53 kts 357°
2026-04-18 04:53 -41.30842 174.80820 1572 ft 57 kts 347°
2026-04-18 04:53 -41.30405 174.80806 1889 ft 69 kts 358°
2026-04-18 04:54 -41.29906 174.80868 2262 ft 72 kts 346°
2026-04-18 04:54 -41.29400 174.80970 2679 ft 79 kts 355°
2026-04-18 04:54 -41.28849 174.81047 3057 ft 81 kts 347°
2026-04-18 04:54 -41.28262 174.81045 3424 ft 93 kts 359°
2026-04-18 04:55 -41.27699 174.81727 3805 ft 119 kts 35°
2026-04-18 04:55 -41.27210 174.82604 4164 ft 121 kts 33°
2026-04-18 04:55 -41.26659 174.83457 4529 ft 121 kts 30°
2026-04-18 04:56 -41.25427 174.85081 5217 ft 127 kts 24°
2026-04-18 04:56 -41.24763 174.85867 5575 ft 128 kts 22°
2026-04-18 04:56 -41.24082 174.86622 5927 ft 128 kts 20°
2026-04-18 04:56 -41.23382 174.87368 6282 ft 129 kts 19°
2026-04-18 04:57 -41.22678 174.88082 6631 ft 128 kts 18°
2026-04-18 04:57 -41.22009 174.88960 6977 ft 145 kts 37°
2026-04-18 04:57 -41.21448 174.90079 7337 ft 144 kts 36°
2026-04-18 04:57 -41.20815 174.91056 7687 ft 137 kts 26°
2026-04-18 04:58 -41.20130 174.91898 8039 ft 134 kts 22°
2026-04-18 04:58 -41.19404 174.92677 8392 ft 132 kts 19°
2026-04-18 04:58 -41.18672 174.93397 8741 ft 130 kts 16°
2026-04-18 04:58 -41.17907 174.94069 8934 ft 136 kts 13°
2026-04-18 04:59 -41.17034 174.94647 9001 ft 146 kts
2026-04-18 04:59 -41.16054 174.95115 9009 ft 154 kts
2026-04-18 04:59 -41.14990 174.95493 9007 ft 159 kts
2026-04-18 04:59 -41.14283 174.95703 9002 ft 161 kts 360°
2026-04-18 05:00 -41.12805 174.96083 9000 ft 163 kts 358°
2026-04-18 05:00 -41.12056 174.96277 9005 ft 165 kts 358°
2026-04-18 05:00 -41.10928 174.96574 9002 ft 163 kts 358°
2026-04-18 05:00 -41.09833 174.96846 8997 ft 159 kts 356°
2026-04-18 05:01 -41.08750 174.97085 8999 ft 156 kts 355°
2026-04-18 05:01 -41.07669 174.97364 9001 ft 158 kts 360°
2026-04-18 05:01 -41.06627 174.97743 9001 ft 158 kts
2026-04-18 05:01 -41.05563 174.98125 9002 ft 157 kts
2026-04-18 05:02 -41.04496 174.98477 9001 ft 156 kts 359°
2026-04-18 05:02 -41.03439 174.98787 9000 ft 154 kts 358°
2026-04-18 05:02 -41.02393 174.99059 9001 ft 153 kts 356°
2026-04-18 05:02 -41.01340 174.99298 9002 ft 152 kts 355°
2026-04-18 05:03 -41.00291 174.99506 8999 ft 152 kts 354°
2026-04-18 05:03 -40.99251 174.99682 8999 ft 151 kts 353°
2026-04-18 05:03 -40.98216 174.99837 9002 ft 150 kts 353°
2026-04-18 05:03 -40.97176 174.99969 9002 ft 149 kts 352°
2026-04-18 05:04 -40.96135 175.00090 8999 ft 149 kts 351°
2026-04-18 05:04 -40.95091 175.00194 8997 ft 149 kts 351°
2026-04-18 05:04 -40.94069 175.00285 9000 ft 148 kts 350°
2026-04-18 05:04 -40.93044 175.00368 9004 ft 148 kts 350°
2026-04-18 05:05 -40.92008 175.00436 9003 ft 148 kts 349°
2026-04-18 05:05 -40.90998 175.00490 9000 ft 148 kts 349°
2026-04-18 05:05 -40.89953 175.00533 8999 ft 147 kts 348°
2026-04-18 05:05 -40.88946 175.00562 9002 ft 147 kts 348°
2026-04-18 05:06 -40.87919 175.00593 9000 ft 147 kts 348°
2026-04-18 05:06 -40.86900 175.00609 9002 ft 146 kts 348°
2026-04-18 05:06 -40.85893 175.00611 8997 ft 146 kts 347°
2026-04-18 05:06 -40.84876 175.00608 9002 ft 146 kts 347°
2026-04-18 05:07 -40.83860 175.00598 8999 ft 146 kts 347°
2026-04-18 05:07 -40.82841 175.00577 9002 ft 145 kts 346°
2026-04-18 05:07 -40.81844 175.00541 9003 ft 145 kts 346°
2026-04-18 05:07 -40.80827 175.00506 9004 ft 145 kts 346°
2026-04-18 05:08 -40.79810 175.00470 9001 ft 145 kts 347°
2026-04-18 05:08 -40.78810 175.00430 9002 ft 145 kts 346°
2026-04-18 05:08 -40.77792 175.00389 9006 ft 145 kts 346°
2026-04-18 05:08 -40.76794 175.00345 9012 ft 144 kts 346°
2026-04-18 05:09 -40.75789 175.00296 9016 ft 144 kts 346°
2026-04-18 05:09 -40.74765 175.00247 9009 ft 145 kts 346°
2026-04-18 05:09 -40.73764 175.00201 9001 ft 145 kts 346°
2026-04-18 05:09 -40.72755 175.00154 9002 ft 145 kts 346°
2026-04-18 05:10 -40.71742 175.00112 9000 ft 145 kts 346°
2026-04-18 05:10 -40.70725 175.00068 8999 ft 145 kts 346°
2026-04-18 05:10 -40.69727 175.00023 8999 ft 145 kts 346°
2026-04-18 05:10 -40.68715 174.99960 8998 ft 145 kts 346°
2026-04-18 05:11 -40.67713 174.99907 8998 ft 145 kts 346°
2026-04-18 05:11 -40.66694 174.99860 9001 ft 145 kts 346°
2026-04-18 05:11 -40.65685 174.99795 9000 ft 145 kts 346°
2026-04-18 05:11 -40.64683 174.99739 9003 ft 145 kts 346°
2026-04-18 05:12 -40.63676 174.99688 9006 ft 145 kts 347°
2026-04-18 05:12 -40.62653 174.99778 9007 ft 154 kts 359°
2026-04-18 05:12 -40.61614 175.00214 9016 ft 158 kts
2026-04-18 05:12 -40.60591 175.00697 9008 ft 158 kts
2026-04-18 05:13 -40.59574 175.01128 9023 ft 153 kts
2026-04-18 05:13 -40.58533 175.01513 9008 ft 152 kts
2026-04-18 05:13 -40.57510 175.01857 9002 ft 151 kts
2026-04-18 05:13 -40.56486 175.02176 8999 ft 150 kts
2026-04-18 05:14 -40.55471 175.02469 9000 ft 149 kts
2026-04-18 05:14 -40.54460 175.02744 9001 ft 148 kts 360°
2026-04-18 05:14 -40.53459 175.02988 8999 ft 148 kts 359°
2026-04-18 05:14 -40.52441 175.03199 9001 ft 147 kts 358°
2026-04-18 05:15 -40.51442 175.03405 9003 ft 147 kts 358°
2026-04-18 05:15 -40.50436 175.03605 9004 ft 146 kts 358°
2026-04-18 05:15 -40.49423 175.03786 9005 ft 146 kts 358°
2026-04-18 05:15 -40.48407 175.03955 9006 ft 146 kts 357°
2026-04-18 05:16 -40.47414 175.04109 9007 ft 145 kts 356°
2026-04-18 05:16 -40.46411 175.04246 9008 ft 145 kts 356°
2026-04-18 05:16 -40.45406 175.04378 9011 ft 145 kts 356°
2026-04-18 05:16 -40.44402 175.04510 9012 ft 144 kts 356°
2026-04-18 05:17 -40.43404 175.04634 9012 ft 144 kts 356°
2026-04-18 05:17 -40.42384 175.04709 8983 ft 153 kts 354°
2026-04-18 05:17 -40.41356 175.04661 9022 ft 147 kts 351°
2026-04-18 05:17 -40.40332 175.04599 9004 ft 144 kts 351°
2026-04-18 05:18 -40.39337 175.04551 9001 ft 143 kts 352°
2026-04-18 05:18 -40.38340 175.04615 9005 ft 144 kts 357°
2026-04-18 05:18 -40.37335 175.04747 9000 ft 145 kts 358°
2026-04-18 05:18 -40.36331 175.04892 9001 ft 145 kts 358°
2026-04-18 05:19 -40.35342 175.05038 9001 ft 145 kts 358°
2026-04-18 05:19 -40.34328 175.05184 9001 ft 145 kts 358°
2026-04-18 05:19 -40.33318 175.05302 9001 ft 144 kts 358°
2026-04-18 05:19 -40.32341 175.05405 8999 ft 143 kts 357°
2026-04-18 05:20 -40.31349 175.05503 8999 ft 143 kts 357°
2026-04-18 05:20 -40.30348 175.05603 8998 ft 143 kts 357°
2026-04-18 05:20 -40.29359 175.05703 8999 ft 143 kts 357°
2026-04-18 05:20 -40.28366 175.05804 9001 ft 143 kts 357°
2026-04-18 05:21 -40.27364 175.05908 9002 ft 143 kts 357°
2026-04-18 05:21 -40.26370 175.06013 9001 ft 143 kts 357°
2026-04-18 05:21 -40.25381 175.06112 9000 ft 143 kts 356°
2026-04-18 05:21 -40.24384 175.06168 8997 ft 142 kts 351°
2026-04-18 05:22 -40.23402 175.06143 8997 ft 142 kts 350°
2026-04-18 05:22 -40.22412 175.06139 8997 ft 142 kts 352°
2026-04-18 05:22 -40.21423 175.06182 8818 ft 142 kts 353°
2026-04-18 05:22 -40.20461 175.06275 8560 ft 133 kts 354°
2026-04-18 05:23 -40.19546 175.06401 8307 ft 130 kts 355°
2026-04-18 05:23 -40.18662 175.06520 8057 ft 127 kts 354°
2026-04-18 05:23 -40.17790 175.06644 7807 ft 126 kts 354°
2026-04-18 05:23 -40.16919 175.06769 7555 ft 125 kts 355°
2026-04-18 05:24 -40.16061 175.06889 7305 ft 123 kts 356°
2026-04-18 05:24 -40.15229 175.07024 7064 ft 124 kts 359°
2026-04-18 05:24 -40.14415 175.07515 6861 ft 132 kts 16°
2026-04-18 05:24 -40.13671 175.08230 6662 ft 131 kts 22°
2026-04-18 05:25 -40.12967 175.08951 6461 ft 127 kts 21°
2026-04-18 05:25 -40.12272 175.09642 6259 ft 124 kts 20°
2026-04-18 05:25 -40.11598 175.10289 6062 ft 122 kts 19°
2026-04-18 05:25 -40.10914 175.10947 5860 ft 121 kts 20°
2026-04-18 05:26 -40.10226 175.11609 5656 ft 120 kts 19°
2026-04-18 05:26 -40.09550 175.12277 5453 ft 121 kts 20°
2026-04-18 05:26 -40.08885 175.12943 5253 ft 120 kts 20°
2026-04-18 05:26 -40.08228 175.13586 5056 ft 120 kts 19°
2026-04-18 05:27 -40.07548 175.14246 4849 ft 121 kts 18°
2026-04-18 05:27 -40.06878 175.14890 4653 ft 123 kts 18°
2026-04-18 05:27 -40.06195 175.15551 4460 ft 121 kts 20°
2026-04-18 05:27 -40.05516 175.16204 4256 ft 119 kts 19°
2026-04-18 05:28 -40.04706 175.16471 3709 ft 122 kts 322°
2026-04-18 05:28 -40.04108 175.15899 3563 ft 102 kts 298°
2026-04-18 05:28 -40.03656 175.15187 3368 ft 102 kts 295°
2026-04-18 05:28 -40.03224 175.14441 3168 ft 103 kts 294°
2026-04-18 05:29 -40.02797 175.13690 2969 ft 103 kts 293°
2026-04-18 05:29 -40.02372 175.12936 2769 ft 104 kts 293°
2026-04-18 05:29 -40.01940 175.12179 2570 ft 104 kts 292°
2026-04-18 05:29 -40.01508 175.11415 2369 ft 104 kts 292°
2026-04-18 05:30 -40.01024 175.10595 1984 ft 135 kts 312°
2026-04-18 05:30 -40.00476 175.09605 1825 ft 131 kts 312°
2026-04-18 05:30 -39.99927 175.08677 1629 ft 126 kts 314°
2026-04-18 05:30 -39.99409 175.07809 1430 ft 119 kts 313°
2026-04-18 05:31 -39.98910 175.06972 1225 ft 114 kts 313°
2026-04-18 05:31 -39.98423 175.06126 1003 ft 122 kts 315°
2026-04-18 05:31 -39.97921 175.05280 843 ft 113 kts 316°
2026-04-18 05:31 -39.97502 175.04534 667 ft 92 kts 306°
2026-04-18 05:32 -39.97168 175.03891 286 ft 89 kts 308°
2026-04-18 05:32 -39.96836 175.03294 63 ft 72 kts 304°
2026-04-18 05:32 -39.96627 175.02926 36 ft 19 kts 325°
2026-04-18 05:32 -39.96613 175.02914 36 ft 0 kts 330°